Location: Tucson
(32.2217°N, 110.9265°W)
Time: 07:02:06
(UTC-07:00)

Tiros 1 - Pass Details

Date: 30 October 2021
Orbit: 629 x 664 km, 48.4° (Epoch: 26 November)

Event Time Altitude Azimuth Distance (km) Brightness Sun altitude
Rises 12:46:10 0° 318° (NW) 2,974 10.3 42.8°
Reaches altitude 10° 12:49:05 10° 335° (NNW) 2,055 9.5 42.7°
Maximum altitude 12:52:35 20° 23° (NNE) 1,485 8.8 42.5°
Drops below altitude 10° 12:56:04 10° 71° (ENE) 2,034 9.5 42.3°
Sets 12:58:55 0° 88° (E) 2,935 10.4 42.1°
